This demonstration page uses our WeatherBlox Daily Observations layout. Learn more.

Left ArrowRight Arrow

39.51506, -84.39828

Hourly Observations for April 8, 2016

Temp ( °F °C ) Dew Point ( °F °C ) Humidity (%) Winds ( mph kmh ) Pressure ( in mb ) Visibility ( mi km ) Precip ( " mm )
12:15 am 00:15 Cloudy 39 4 31 -0.7 72 72 W 10 17 29.85 1011 10 16 N/A
12:35 am 00:35 Cloudy 39 4 31 -0.7 72 72 W 9 15 29.85 1011 10 16 N/A
12:55 am 00:55 Cloudy 39 4 30 -1.1 70 70 WNW 8 13 29.85 1011 10 16 N/A
1:15 am 01:15 Cloudy 39 4 30 -0.9 71 71 W 8 13 29.85 1011 10 16 N/A
1:35 am 01:35 Cloudy 39 4 31 -0.8 71 71 W 12 19 29.88 1012 10 16 N/A
1:55 am 01:55 Cloudy 39 4 30 -1.3 69 69 WNW 9 15 29.88 1012 10 16 N/A
2:35 am 02:35 Cloudy 39 4 30 -0.9 71 71 WNW 10 17 29.88 1012 10 16 N/A
2:55 am 02:55 Mostly Cloudy 38 3.1 28 -2.1 69 69 NW 5 7 29.88 1012 10 16 N/A
3:15 am 03:15 Cloudy 39 3.9 28 -2 66 66 WNW 5 7 29.85 1011 10 16 N/A
3:35 am 03:35 Cloudy 38 3.5 29 -1.6 70 70 W 6 9 29.85 1011 10 16 N/A
3:55 am 03:55 Cloudy 38 3.1 29 -1.8 71 71 W 5 7 29.85 1011 10 16 N/A
4:15 am 04:15 Cloudy 37 2.6 28 -2 72 72 W 7 11 29.88 1012 10 16 N/A
4:35 am 04:35 Partly Cloudy 37 2.6 29 -1.5 75 75 W 7 11 29.88 1012 10 16 N/A
4:55 am 04:55 Clear 34 1.2 28 -2.2 78 78 WSW 6 9 29.91 1013 10 16 N/A
5:15 am 05:15 Clear 34 1.2 29 -1.9 80 80 WSW 5 7 29.91 1013 10 16 N/A
5:35 am 05:35 Clear 34 1.2 30 -1.3 84 84 WSW 5 7 29.91 1013 10 16 N/A
5:55 am 05:55 Clear 34 1.2 30 -1.1 85 85 WSW 3 6 29.91 1013 10 16 N/A
6:15 am 06:15 Partly Cloudy 33 0.6 29 -1.5 86 86 N N/A 29.88 1012 10 16 N/A
6:35 am 06:35 Mostly Cloudy 31 -0.5 28 -2.4 87 87 W 3 6 29.88 1012 7 11 N/A
6:55 am 06:55 Cloudy 34 1.2 31 -0.5 89 89 N N/A 29.88 1012 10 16 N/A
7:15 am 07:15 Partly Cloudy 34 1.2 31 -0.5 89 89 N N/A 29.88 1012 10 16 N/A
7:35 am 07:35 Sunny 34 1.2 30 -1 85 85 WSW 3 6 29.88 1012 10 16 N/A
7:55 am 07:55 Sunny 34 1.2 31 -0.6 88 88 SW 6 9 29.91 1013 7 11 N/A
8:15 am 08:15 Sunny 36 2 32 -0.2 86 86 WSW 9 15 29.91 1013 10 16 N/A
8:35 am 08:35 Sunny 37 2.6 32 undefined 83 83 WSW 9 15 29.88 1012 10 16 N/A
8:55 am 08:55 Sunny 39 4 33 0.6 79 79 WSW 9 15 29.88 1012 10 16 N/A
9:15 am 09:15 Partly Cloudy 39 4 32 0.1 76 76 WSW 9 15 29.88 1012 10 16 N/A
9:35 am 09:35 Partly Cloudy 40 4.6 32 0.2 73 73 WSW 8 13 29.88 1012 10 16 N/A
9:55 am 09:55 Mostly Cloudy 40 4.7 32 -0.2 71 71 WSW 12 19 29.88 1012 10 16 N/A
10:15 am 10:15 Cloudy 40 4.7 31 -0.6 69 69 WSW 8 13 29.88 1012 10 16 N/A
10:35 am 10:35 Cloudy 40 4.7 31 -0.6 69 69 WSW 10 17 29.88 1012 10 16 N/A
10:55 am 10:55 Cloudy 40 4.7 30 -1.1 66 66 WSW 10 17 29.88 1012 10 16 N/A
11:15 am 11:15 Cloudy 40 4.7 31 -0.8 68 68 WSW 12 19 29.88 1012 10 16 N/A
11:35 am 11:35 Cloudy 40 4.7 31 -0.5 69 69 WSW 12 19 29.88 1012 10 16 N/A
11:55 am 11:55 Cloudy 42 5.5 32 undefined 68 68 SW 8 13 29.88 1012 10 16 N/A
12:15 pm 12:15 Cloudy 42 5.5 31 -0.8 64 64 WSW 13 20 29.88 1012 10 16 N/A
12:35 pm 12:35 Cloudy 43 6 29 -1.4 59 59 WSW 10 17 29.88 1012 10 16 N/A
12:55 pm 12:55 Cloudy 42 5.5 29 -1.9 59 59 SW 9 15 29.88 1012 10 16 N/A
1:15 pm 13:15 Cloudy 42 5.8 29 -1.5 60 60 WSW 8 13 29.88 1012 10 16 N/A
1:35 pm 13:35 Cloudy 43 6 30 -1.1 61 61 SW 8 13 29.88 1012 10 16 N/A
1:55 pm 13:55 Cloudy 43 6.1 30 -1.1 60 60 SW 8 13 29.85 1011 10 16 N/A
2:15 pm 14:15 Cloudy 44 6.7 31 -0.7 60 60 SW 14 22 29.85 1011 10 16 N/A
2:35 pm 14:35 Cloudy 45 7.3 32 -0.2 59 59 WSW 13 20 29.85 1011 10 16 N/A
2:55 pm 14:55 Cloudy with Light Snow 42 5.6 33 0.6 71 71 W 17 28 29.85 1011 4 6 N/A
3:15 pm 15:15 Cloudy 42 5.8 36 2.2 78 78 SW 10 17 29.85 1011 7 11 N/A
3:35 pm 15:35 Cloudy 44 6.4 37 2.6 77 77 SW 10 17 29.85 1011 10 16 N/A
3:55 pm 15:55 Cloudy 43 6.1 36 2.3 77 77 SSW 14 22 29.85 1011 10 16 N/A
4:15 pm 16:15 Cloudy 43 6.3 36 2.3 76 76 SW 12 19 29.83 1010 10 16 N/A
4:35 pm 16:35 Cloudy 43 6.2 36 2.2 76 76 SW 13 20 29.83 1010 10 16 N/A
4:55 pm 16:55 Windy with Snow Likely 42 5.5 36 2 78 78 W 20 31 29.85 1011 2 3 N/A
5:15 pm 17:15 Cloudy with Light Snow 39 4 35 1.6 85 85 WSW 8 13 29.83 1010 2 3 N/A
5:35 pm 17:35 Mostly Cloudy 39 4 35 1.7 85 85 SW 7 11 29.83 1010 10 16 N/A
5:55 pm 17:55 Cloudy 40 4.7 36 2.3 85 85 SSW 6 9 29.83 1010 10 16 N/A
6:15 pm 18:15 Cloudy 42 5.5 37 2.6 82 82 W 17 28 29.85 1011 10 16 N/A
6:35 pm 18:35 Cloudy 42 5.8 35 1.5 74 74 WNW 12 19 29.83 1010 10 16 N/A
6:55 pm 18:55 Cloudy 43 6.1 33 0.8 69 69 WNW 20 31 29.85 1011 10 16 N/A
7:15 pm 19:15 Cloudy 40 4.7 32 0.1 72 72 WNW 15 24 29.85 1011 10 16 N/A
7:35 pm 19:35 Cloudy 40 4.7 33 0.6 75 75 W 12 19 29.85 1011 10 16 N/A
7:55 pm 19:55 Mostly Cloudy 40 4.2 32 0.2 75 75 W 12 19 29.85 1011 10 16 N/A
8:15 pm 20:15 Cloudy 40 4.7 32 undefined 72 72 W 13 20 29.85 1011 10 16 N/A
8:35 pm 20:35 Cloudy 40 4.7 29 -1.9 63 63 WNW 10 17 29.85 1011 10 16 N/A
8:55 pm 20:55 Partly Cloudy 40 4.2 29 -1.7 66 66 W 6 9 29.85 1011 10 16 N/A
9:15 pm 21:15 Partly Cloudy 39 4 29 -1.5 68 68 W 7 11 29.85 1011 10 16 N/A
9:35 pm 21:35 Clear 39 4 30 -1 70 70 NW 6 9 29.88 1012 10 16 N/A
9:55 pm 21:55 Mostly Cloudy 39 4 30 -0.9 71 71 NW 5 7 29.88 1012 10 16 N/A
10:15 pm 22:15 Mostly Cloudy 39 4 30 -1 70 70 NW 5 7 29.88 1012 10 16 N/A
10:35 pm 22:35 Mostly Cloudy 39 4 30 -1 70 70 NW 6 9 29.88 1012 10 16 N/A
10:55 pm 22:55 Cloudy 39 4 30 -1.2 69 69 NW 7 11 29.85 1011 10 16 N/A
11:15 pm 23:15 Cloudy with Light Snow 37 2.6 31 -0.8 79 79 NW 14 22 29.88 1012 2 3 N/A
11:35 pm 23:35 Cloudy with Light Snow 34 1.2 31 -0.7 87 87 WNW 5 7 29.91 1013 2 2 N/A
11:55 pm 23:55 Cloudy with Light Snow 34 1.2 31 -0.5 89 89 NW 5 7 29.91 1013 1 2 N/A

Powered by AerisWeather